Location: ?
(35.4064°N, 139.3593°E)
Time: 06:26:26
(UTC+00:00)

ADEOS II - Visible Passes

Search period start: 13 July 2024 00:00
Search period end: 23 July 2024 00:00
Orbit: 796 x 798 km, 98.7° (Epoch: 12 July)

Date Brightness Start Highest point End Pass type
(mag) Time Alt. Az. Time Alt. Az. Time Alt. Az.
13 Jul 3.2 16:20:50 10° NNE 16:25:34 34° E 16:26:05 33° ESE visible
13 Jul 3.3 18:00:44 10° NNW 18:04:58 26° WNW 18:06:57 20° W visible
14 Jul 4.1 15:54:22 10° NE 15:57:54 18° E 15:58:12 18° E visible
14 Jul 2.5 17:32:41 10° N 17:37:42 46° WNW 17:39:04 37° WSW visible
15 Jul 2.0 17:05:01 10° NNE 17:10:17 87° WNW 17:11:11 63° SSW visible
16 Jul 2.5 16:37:41 10° NNE 16:42:47 50° E 16:43:18 48° ESE visible
16 Jul 3.8 18:18:30 10° NNW 18:21:56 18° WNW 18:24:10 14° W visible
17 Jul 3.6 16:10:47 10° NE 16:15:10 27° E 16:15:25 27° E visible
17 Jul 3.0 17:50:07 10° N 17:54:43 32° WNW 17:56:17 27° W visible
18 Jul 4.3 15:44:46 10° ENE 15:47:27 14° E 15:47:32 14° E visible
18 Jul 2.2 17:22:14 10° N 17:27:23 59° WNW 17:28:24 49° WSW visible
19 Jul 2.0 16:54:41 10° NNE 16:59:56 75° ESE 17:00:30 67° SSE visible
19 Jul 4.1 18:36:50 10° NW 18:38:51 12° WNW 18:40:51 10° W visible
20 Jul 3.0 16:27:29 10° NNE 16:32:23 39° E 16:32:37 39° ESE visible
20 Jul 3.5 18:07:43 10° NNW 18:11:42 22° WNW 18:13:29 19° W visible
21 Jul 3.9 16:00:49 10° NE 16:04:43 21° E 16:04:43 21° E visible
21 Jul 2.7 17:39:33 10° N 17:44:26 40° WNW 17:45:35 35° WSW visible
22 Jul 4.6 15:35:56 10° E 15:36:49 11° E 15:36:49 11° E visible
22 Jul 1.9 17:11:48 10° N 17:17:02 75° WNW 17:17:41 65° SW visible
